Location: Eaton
(41.3139°N, 82.0207°W)
Time: 13:23:58
(UTC+00:00)

Cosmos 2360 Rocket - Pass Details

Date: 17 June 2021
Orbit: 835 x 843 km, 71.0° (Epoch: 31 July)

Event Time Altitude Azimuth Distance (km) Brightness Sun altitude
Exits shadow 02:44:55 - 198° (SSW) 3,148 4.8 -15.0°
Reaches altitude 10° 02:46:45 10° 197° (SSW) 2,448 4.3 -15.2°
Maximum altitude 02:52:22 78° 111° (ESE) 860 2.1 -15.8°
Drops below altitude 10° 02:58:00 10° 26° (NNE) 2,459 5.0 -16.4°
Sets 03:00:27 0° 26° (NNE) 3,396 5.8 -16.7°
